Theta_e
300 300 300 301 301 301 301 301 301 301 301 301 301 302 302 303 303 303 304 304 305 305 306 308 308 308 309 312 312 311 304 306 308 309 310 309 308 308 308 308 308 307 306 306 306
300 300 300 300 301 300 301 301 301 301 301 301 301 302 302 303 303 303 303 304 305 305 306 308 308 308 309 310 310 307 304 309 308 307 309 308 306 306 306 305 307 306 306 306 306
300 300 300 300 300 301 300 301 301 301 300 301 301 302 303 304 304 303 304 304 305 305 306 308 308 308 309 308 307 307 307 308 309 308 308 306 305 305 304 303 305 304 305 305 305
300 300 300 300 300 300 300 300 301 301 300 301 301 302 303 304 307 303 303 304 304 304 306 307 307 308 305 304 306 305 305 306 306 306 306 305 305 304 303 303 304 304 305 305 305
300 300 300 300 300 300 300 300 300 301 300 300 301 302 303 303 303 303 303 303 303 303 305 306 307 307 304 304 305 305 305 305 304 304 305 305 303 303 303 304 305 304 305 304 303
300 300 300 300 300 300 300 300 300 300 300 300 301 301 303 303 302 302 302 302 302 302 303 305 307 307 305 304 303 304 302 302 302 303 304 304 303 303 304 304 305 304 304 303 302
300 300 300 300 300 300 300 300 300 300 300 300 300 302 303 303 302 301 301 301 301 301 302 304 305 305 305 304 303 302 301 301 301 303 304 303 301 302 304 304 304 302 301 301 301
300 300 300 300 300 300 300 300 300 300 300 300 301 301 302 302 301 301 301 301 301 302 302 303 303 302 303 303 301 299 298 300 301 301 303 302 302 302 302 301 300 300 301 301 300
300 300 300 300 300 299 300 300 300 300 300 300 301 301 302 301 301 301 301 300 301 301 302 302 302 302 302 298 298 297 301 301 302 299 300 300 300 301 300 300 299 299 299 300 300
300 300 299 300 300 299 299 299 299 299 300 300 301 301 302 301 301 301 301 301 301 302 302 303 303 298 297 296 299 302 300 301 301 299 299 299 299 298 299 300 298 299 299 299 298
299 299 299 299 299 299 299 300 301 302 301 303 302 302 302 301 301 301 301 303 304 304 301 300 299 300 301 300 300 299 299 300 299 300 299 299 298 297 298 298 298 298 298 298 297
300 299 299 298 299 299 299 300 303 302 303 303 303 302 301 302 301 301 302 303 303 301 299 301 302 302 300 300 300 300 299 301 300 299 300 299 298 296 297 297 297 297 297 297 297
299 299 299 298 298 298 299 300 301 300 302 303 303 302 302 303 302 301 302 302 301 300 299 300 302 301 301 300 300 301 300 302 301 300 298 297 298 297 298 298 297 297 296 296 295
299 299 298 298 298 298 298 299 299 300 299 301 302 302 302 303 302 302 302 302 301 300 300 301 300 300 301 302 300 301 301 301 301 299 298 296 296 298 297 295 296 295 296 296 296
299 299 298 297 299 298 299 299 299 300 307 303 301 302 302 301 301 301 302 302 300 300 298 301 301 301 302 302 301 302 301 300 301 299 298 298 296 297 297 296 294 294 295 295 295
300 299 298 297 299 299 298 298 299 305 308 301 300 302 301 302 302 301 302 303 302 300 299 300 301 300 301 300 300 299 297 296 295 297 291 298 296 294 297 297 293 293 294 294 294
299 298 298 297 298 299 297 298 299 306 301 301 299 301 301 301 301 301 300 301 300 299 300 299 300 300 300 301 300 298 295 291 293 290 292 295 296 295 295 293 292 292 292 292 292
300 298 298 296 298 298 297 296 297 298 299 299 300 300 301 300 300 301 300 300 300 298 298 298 299 300 299 299 300 300 295 293 290 291 292 295 295 296 292 292 291 291 290 290 290
304 300 297 296 297 297 298 293 300 300 299 300 300 299 300 300 300 301 300 298 298 296 298 296 299 297 297 298 296 300 296 294 287 281 290 294 296 294 292 291 290 289 289 290 290
305 300 297 295 297 296 294 297 296 299 300 300 304 298 299 297 300 300 299 298 299 297 297 296 298 297 297 297 297 299 296 295 289 288 287 291 294 295 294 291 289 288 289 289 289
305 300 297 295 296 297 292 293 296 299 301 301 301 296 299 298 299 298 299 298 298 297 297 295 296 297 296 296 296 296 294 294 293 291 288 288 292 291 292 290 289 288 288 288 289
304 293 295 295 295 291 288 294 297 297 299 298 299 298 297 298 297 298 299 297 298 298 297 296 295 293 296 293 292 296 295 294 290 290 290 289 292 292 289 289 288 288 288 288 288
302 295 294 297 290 289 289 295 296 296 297 296 298 299 297 296 300 297 297 294 296 296 297 295 290 287 291 292 293 294 295 292 285 285 290 288 291 289 289 288 287 287 288 288 288
303 293 294 295 294 292 291 295 295 296 297 297 297 297 296 295 294 294 296 293 294 296 297 295 287 290 295 294 292 294 293 292 288 286 286 291 286 289 288 286 286 287 287 288 288
303 295 294 294 294 292 295 294 296 296 295 296 295 297 298 296 295 295 293 293 293 296 293 292 290 286 285 290 292 293 293 291 289 290 291 289 288 285 282 281 286 286 287 287 286
303 297 292 292 296 295 296 294 296 295 296 296 295 296 298 300 302 297 293 293 296 291 291 288 291 288 286 287 287 289 291 290 291 285 285 287 289 287 286 285 285 285 286 286 285
304 304 303 296 295 296 297 296 297 297 295 296 296 297 297 297 295 295 292 292 293 293 291 291 289 290 288 285 284 287 290 290 288 284 289 289 290 285 283 285 285 285 285 285 284
Wind_Speed
2 2 1 2 2 3 2 3 3 3 3 4 4 4 6 7 7 5 9 10 11 8 7 6 5 8 10 11 11 5 5 3 2 3 2 4 5 5 4 8 6 8 9 10 15
2 0 0 1 1 3 3 2 3 3 3 4 5 6 8 9 10 12 10 9 8 9 7 6 8 8 7 6 6 7 4 2 0 3 2 3 4 7 5 9 6 8 9 12 17
2 2 1 1 2 3 3 3 3 3 3 4 4 5 3 3 4 10 8 8 8 8 7 7 7 8 9 8 8 4 4 4 4 5 4 3 4 4 6 5 6 8 14 15 19
4 3 3 2 3 3 2 3 2 3 3 3 4 4 4 3 2 6 7 7 7 7 6 7 4 4 5 5 6 6 6 3 3 5 3 3 4 4 9 6 6 9 10 13 18
5 4 3 3 3 3 2 1 2 3 3 3 4 3 3 7 6 6 7 6 6 5 5 7 10 5 5 5 5 5 2 5 5 5 6 4 6 3 8 9 9 6 8 14 18
6 5 5 4 4 3 2 1 1 3 3 2 3 2 3 6 5 5 6 6 5 6 8 7 8 12 10 6 5 4 7 8 8 5 9 5 3 3 8 5 6 9 12 14 19
7 6 6 5 5 4 3 2 2 2 2 1 2 5 7 6 4 4 6 6 7 7 9 11 9 4 5 4 5 5 5 5 16 9 4 6 5 3 6 6 10 14 11 13 17
9 7 7 6 5 4 3 2 2 2 1 1 2 3 6 6 4 4 4 6 7 7 9 10 11 11 6 8 5 5 5 4 6 15 4 4 2 2 19 19 15 10 10 13 18
10 9 7 6 5 4 3 3 3 2 2 1 2 3 4 5 3 5 5 5 6 7 8 7 6 7 5 4 4 7 4 4 2 7 6 7 3 5 22 18 17 15 15 15 18
11 9 8 7 6 5 4 4 3 2 2 2 3 4 4 3 4 5 6 5 4 7 5 4 6 5 5 4 3 3 5 2 0 6 7 7 6 9 20 21 19 16 14 17 21
13 11 9 8 7 6 6 5 4 2 3 5 4 6 5 5 4 5 5 5 4 5 4 6 7 4 3 4 4 6 5 3 2 1 4 3 6 7 14 21 18 15 16 18 21
15 13 11 9 8 8 9 4 3 4 9 6 6 6 6 4 3 4 3 3 4 3 2 6 4 3 5 6 6 4 4 1 1 3 1 5 5 4 11 8 13 13 15 17 20
17 15 13 11 9 10 9 6 5 5 5 3 4 3 3 2 3 3 3 4 5 4 4 5 5 3 3 4 5 2 5 2 1 3 2 4 4 5 3 10 21 18 14 13 17
19 16 14 12 8 10 8 8 7 4 4 1 1 2 1 4 4 3 5 3 4 4 3 5 1 3 4 3 2 3 2 3 2 2 1 4 3 1 2 8 17 24 20 16 18
21 19 16 15 6 14 8 10 8 3 2 2 1 2 3 3 4 2 4 3 4 3 3 1 2 3 4 2 1 3 3 3 2 3 3 6 4 3 1 7 6 22 22 18 17
24 21 19 18 10 11 12 13 9 6 5 1 1 2 3 2 2 2 2 4 6 5 6 2 2 2 2 2 2 5 5 5 4 2 3 3 2 3 2 2 4 14 17 17 17
25 24 22 20 14 15 17 14 5 4 4 3 3 3 2 2 2 1 2 2 4 5 1 2 2 1 2 3 1 2 4 3 5 5 4 4 3 4 5 4 3 4 13 16 18
25 26 24 22 18 19 23 5 4 3 6 2 3 3 3 4 1 2 4 2 3 3 3 5 3 1 2 1 3 3 3 5 5 2 4 3 5 4 7 10 7 8 11 16 19
27 24 23 24 21 24 17 3 9 7 8 11 3 4 3 3 4 3 4 4 6 8 5 5 1 1 4 1 2 2 3 3 7 2 4 3 5 2 5 3 8 12 17 23 24
31 24 23 25 24 26 4 7 5 3 8 3 9 4 8 5 5 6 7 3 4 5 2 6 4 1 1 2 7 1 5 3 3 2 4 4 6 5 7 2 6 12 19 18 20
32 15 20 26 25 15 5 7 6 8 8 7 5 4 2 8 7 6 4 2 4 5 3 4 4 1 2 4 6 1 1 4 4 4 4 2 6 5 7 5 2 7 11 15 16
27 3 27 33 8 3 4 8 10 7 10 2 4 5 7 5 5 5 9 3 9 14 8 3 5 3 4 2 1 2 6 5 4 5 2 3 6 3 10 9 3 5 9 9 11
26 8 33 38 5 3 2 4 10 6 7 7 7 2 3 7 3 4 4 1 6 6 7 7 1 3 6 5 0 4 5 4 5 3 6 5 6 6 11 4 4 5 7 6 9
22 4 8 20 8 8 7 6 7 5 7 7 6 6 4 2 2 6 4 2 1 3 2 5 3 6 8 4 5 6 6 5 6 4 4 8 4 7 9 3 2 3 3 6 7
20 8 17 10 12 5 9 12 12 8 4 13 3 6 9 5 3 4 3 3 2 2 3 4 5 3 2 3 2 1 5 10 9 10 7 5 9 7 6 6 5 3 4 4 3
20 11 11 8 25 15 14 11 18 6 12 7 6 16 7 8 7 7 8 4 6 2 3 1 2 2 3 4 5 3 6 8 10 3 9 3 14 8 6 8 9 7 5 2 2
25 25 22 19 10 17 18 18 26 18 6 8 16 7 4 1 14 15 11 8 7 9 6 6 6 3 4 4 4 6 14 17 6 5 9 8 11 8 4 12 13 9 5 4 6
Wind_Direction
287 319 335 278 132 111 90 84 82 76 65 81 85 87 85 75 64 46 50 34 30 31 36 53 57 76 77 62 49 32 62 84 117 143 166 15 36 35 8 7 28 39 32 358 344
262 251 217 211 135 118 118 103 99 93 88 94 97 100 93 86 75 68 49 36 30 37 47 64 62 68 62 42 41 62 83 114 155 138 115 45 29 352 23 11 33 16 9 344 342
221 211 164 160 140 136 125 99 93 94 92 102 105 110 93 68 79 33 37 34 34 34 46 59 65 76 67 46 19 55 109 148 62 75 53 36 27 21 357 38 25 353 343 342 347
223 194 175 177 147 138 125 110 95 84 85 101 108 99 66 47 99 30 31 34 29 39 36 43 54 61 69 70 29 90 64 85 97 40 40 34 7 36 25 349 310 326 338 343 353
209 198 192 164 131 130 124 99 106 96 93 105 106 94 63 74 65 39 34 30 31 34 58 68 70 81 91 88 79 70 45 56 10 26 50 36 39 44 36 29 26 8 354 353 359
211 200 192 173 148 151 132 100 77 99 106 104 106 80 67 80 59 37 36 29 31 45 57 73 83 93 86 66 67 90 64 48 32 61 58 35 350 93 34 27 21 5 359 360 3
208 202 193 179 168 162 152 126 104 89 102 104 92 88 87 87 80 54 43 48 56 69 82 83 86 85 99 90 84 83 80 40 21 6 35 351 32 47 13 9 347 346 356 12 13
207 203 196 183 174 170 155 135 115 110 105 105 94 68 88 101 77 60 51 57 68 82 88 88 95 82 70 115 51 60 58 54 346 15 350 47 260 356 348 342 5 10 19 32 18
211 207 199 191 175 175 164 149 131 124 110 99 72 84 84 101 75 67 63 80 87 93 96 98 87 73 67 78 46 16 106 58 315 31 341 46 277 341 12 21 35 53 49 35 20
214 213 207 194 183 179 170 156 132 113 101 99 85 97 104 70 71 69 76 84 92 105 97 76 63 71 34 59 174 124 107 89 36 343 3 2 318 343 25 48 55 55 42 29 24
214 213 210 201 186 181 173 148 130 117 76 78 75 94 108 102 70 78 89 86 76 62 49 29 69 99 115 59 107 111 107 152 249 87 17 357 308 348 20 50 49 41 30 26 24
213 210 206 202 190 185 184 174 166 143 99 82 81 96 117 107 97 69 69 73 51 64 355 30 95 166 117 86 96 92 112 19 306 4 58 359 311 1 27 35 36 25 23 21 16
214 211 205 202 196 192 187 180 161 142 83 59 84 96 112 101 79 41 68 90 83 53 13 114 149 110 124 93 105 52 132 161 101 9 47 337 338 21 18 57 41 29 17 16 12
211 210 205 196 199 200 187 172 164 160 75 300 23 36 120 125 59 67 76 85 53 138 110 90 1 117 103 88 114 128 141 105 123 77 120 22 245 90 17 40 25 23 22 14 11
211 207 201 196 195 187 190 166 153 126 21 38 64 132 119 128 132 62 78 82 110 112 124 165 105 93 81 103 43 133 96 100 102 96 103 353 71 249 353 29 5 13 20 19 8
210 207 201 200 192 184 166 154 136 49 257 207 56 133 87 62 68 111 100 85 112 83 41 100 73 62 123 94 69 134 92 60 55 70 43 257 123 275 53 55 1 14 26 23 15
207 205 201 197 191 175 157 152 52 142 1 230 178 166 117 147 104 97 113 114 148 109 177 26 359 18 94 89 79 100 78 353 0 13 204 342 297 242 115 88 85 16 11 10 13
201 203 197 196 186 172 158 56 117 211 205 130 124 99 186 158 50 101 110 181 229 122 126 149 300 142 11 113 175 72 139 146 209 233 266 354 246 217 143 108 58 34 26 19 13
201 193 193 193 181 175 161 92 199 199 158 150 72 110 246 200 154 138 190 211 209 180 156 144 110 3 53 31 68 190 62 150 102 55 51 249 283 237 171 74 23 18 19 15 7
192 186 193 186 180 177 111 218 221 149 125 162 171 150 172 198 161 179 180 203 183 183 165 195 104 6 96 57 44 93 145 78 6 100 282 280 279 237 200 13 344 9 15 6 3
188 163 186 179 174 175 170 214 204 198 155 163 186 117 225 173 179 180 195 218 161 149 121 153 107 236 88 202 174 91 35 47 109 134 173 261 255 227 152 158 68 14 5 2 3
173 144 170 173 157 207 163 187 173 168 186 139 109 119 167 153 150 207 200 239 173 153 160 192 124 153 196 256 211 218 183 150 131 234 193 143 273 134 137 134 122 17 5 15 6
166 128 169 179 163 226 294 197 179 144 169 162 176 159 143 168 177 192 178 56 181 173 158 187 292 64 352 352 12 208 188 118 113 89 199 142 260 172 151 102 34 16 13 21 11
158 129 165 204 214 151 153 205 180 173 153 152 140 119 120 103 7 172 139 55 182 197 109 127 89 158 188 184 137 189 182 164 134 130 182 228 221 214 217 223 357 19 24 37 13
173 184 170 189 211 190 177 167 178 161 225 167 175 215 163 135 125 152 101 87 37 129 99 127 186 117 297 323 17 236 180 174 196 197 186 250 213 219 209 208 169 175 126 81 32
169 151 151 150 157 177 193 192 183 174 160 212 184 194 206 162 168 172 128 187 194 113 134 30 137 117 347 358 43 302 247 208 220 200 273 275 277 179 160 154 170 170 148 131 317
186 184 159 155 152 178 206 189 199 162 192 194 178 121 147 103 117 132 133 128 153 153 154 144 139 117 255 355 350 312 233 210 185 193 186 215 241 156 173 195 191 188 196 235 278